| time (UTC) | temp F | wind direction | speed MPH | gust MPH | rain 1hr in | rain 24hr in | rain mn in | humidity % | barometer mb |
| 20260505012507 | 52 | 327 | 4.0 | 11.0 | 0.00 | 0.00 | 0.00 | 42 | 1004.0 |
| 20260505012010 | 52 | 274 | 2.0 | 14.0 | 0.00 | 0.00 | 0.00 | 41 | 1003.9 |
| 20260505011524 | 52 | 219 | 4.0 | 17.0 | 0.00 | 0.00 | 0.00 | 41 | 1003.8 |
| 20260505011007 | 53 | 225 | 3.0 | 17.0 | 0.00 | 0.00 | 0.00 | 41 | 1003.7 |
| 20260505010503 | 53 | 332 | 3.0 | 13.0 | 0.00 | 0.00 | 0.00 | 41 | 1003.6 |
| 20260505010004 | 53 | 346 | 3.0 | 9.0 | 0.00 | 0.00 | 0.00 | 41 | 1003.6 |
| 20260505005504 | 54 | 330 | 2.0 | 9.0 | 0.00 | 0.00 | 0.00 | 41 | 1003.5 |
| 20260505005006 | 54 | 327 | 1.0 | 9.0 | 0.00 | 0.00 | 0.00 | 41 | 1003.4 |
| 20260505004504 | 54 | 306 | 2.0 | 10.0 | 0.00 | 0.00 | 0.00 | 40 | 1003.3 |
| 20260505004003 | 54 | 290 | 5.0 | 10.0 | 0.00 | 0.00 | 0.00 | 40 | 1003.2 |
| 20260505003508 | 55 | 352 | 1.0 | 10.0 | 0.00 | 0.00 | 0.00 | 40 | 1003.2 |
| 20260505003020 | 55 | 351 | 1.0 | 12.0 | 0.00 | 0.00 | 0.00 | 40 | 1003.0 |
| 20260505002503 | 55 | 298 | 4.0 | 12.0 | 0.00 | 0.00 | 0.00 | 39 | 1003.0 |
| 20260505002003 | 56 | 49 | 3.0 | 12.0 | 0.00 | 0.00 | 0.00 | 40 | 1002.9 |
| 20260505001504 | 56 | 314 | 4.0 | 11.0 | 0.00 | 0.00 | 0.00 | 39 | 1002.9 |
| 20260505001003 | 56 | 348 | 3.0 | 12.0 | 0.00 | 0.00 | 0.00 | 39 | 1002.7 |
| 20260505000504 | 56 | 299 | 1.0 | 12.0 | 0.00 | 0.00 | 0.00 | 39 | 1002.8 |
| 20260505000007 | 57 | 344 | 2.0 | 12.0 | 0.00 | 0.00 | 0.00 | 39 | 1002.7 |
| 20260504235506 | 57 | 221 | 2.0 | 10.0 | 0.00 | 0.00 | 0.00 | 38 | 1002.6 |
| 20260504235004 | 57 | 24 | 2.0 | 14.0 | 0.00 | 0.00 | 0.00 | 38 | 1002.6 |
| 20260504234509 | 58 | 315 | 4.0 | 14.0 | 0.00 | 0.00 | 0.00 | 37 | 1002.5 |
| 20260504234008 | 58 | 273 | 4.0 | 12.0 | 0.00 | 0.00 | 0.00 | 37 | 1002.5 |
| 20260504233502 | 58 | 321 | 3.0 | 10.0 | 0.00 | 0.00 | 0.00 | 37 | 1002.4 |
| 20260504233010 | 59 | 257 | 3.0 | 10.0 | 0.00 | 0.00 | 0.00 | 37 | 1002.3 |
| 20260504232507 | 59 | 210 | 3.0 | 15.0 | 0.00 | 0.00 | 0.00 | 36 | 1002.3 |
| 20260504232010 | 59 | 331 | 6.0 | 15.0 | 0.00 | 0.00 | 0.00 | 36 | 1002.3 |
| 20260504231503 | 59 | 324 | 5.0 | 14.0 | 0.00 | 0.00 | 0.00 | 36 | 1002.1 |
| 20260504231001 | 60 | 257 | 3.0 | 14.0 | 0.00 | 0.00 | 0.00 | 36 | 1002.1 |
| 20260504230503 | 60 | 288 | 3.0 | 11.0 | 0.00 | 0.00 | 0.00 | 36 | 1002.0 |
| 20260504230003 | 60 | 237 | 2.0 | 11.0 | 0.00 | 0.00 | 0.00 | 36 | 1002.1 |
| 20260504225503 | 60 | 266 | 4.0 | 11.0 | 0.00 | 0.00 | 0.00 | 35 | 1001.8 |
| 20260504225006 | 60 | 251 | 2.0 | 18.0 | 0.00 | 0.00 | 0.00 | 35 | 1001.8 |
| 20260504224511 | 61 | 52 | 3.0 | 18.0 | 0.00 | 0.00 | 0.00 | 35 | 1001.7 |
| 20260504224002 | 61 | 350 | 3.0 | 13.0 | 0.00 | 0.00 | 0.00 | 34 | 1001.6 |
| 20260504223506 | 61 | 267 | 3.0 | 9.0 | 0.00 | 0.00 | 0.00 | 34 | 1001.5 |
| 20260504223013 | 61 | 45 | 3.0 | 17.0 | 0.00 | 0.00 | 0.00 | 33 | 1001.6 |
| 20260504222507 | 62 | 229 | 3.0 | 17.0 | 0.00 | 0.00 | 0.00 | 33 | 1001.4 |
| 20260504222003 | 62 | 304 | 4.0 | 11.0 | 0.00 | 0.00 | 0.00 | 33 | 1001.3 |
| 20260504221516 | 63 | 348 | 2.0 | 10.0 | 0.00 | 0.00 | 0.00 | 33 | 1001.2 |
| 20260504221005 | 63 | 323 | 2.0 | 8.0 | 0.00 | 0.00 | 0.00 | 33 | 1001.1 |
| 20260504220503 | 63 | 158 | 2.0 | 10.0 | 0.00 | 0.00 | 0.00 | 33 | 1000.9 |
| 20260504220007 | 63 | 254 | 1.0 | 12.0 | 0.00 | 0.00 | 0.00 | 34 | 1000.8 |
| 20260504215506 | 63 | 78 | 3.0 | 12.0 | 0.00 | 0.00 | 0.00 | 33 | 1000.7 |
| 20260504215002 | 63 | 349 | 1.0 | 12.0 | 0.00 | 0.00 | 0.00 | 34 | 1000.7 |
| 20260504214506 | 63 | 280 | 3.0 | 11.0 | 0.00 | 0.00 | 0.00 | 35 | 1000.8 |
| 20260504214003 | 63 | 243 | 2.0 | 9.0 | 0.00 | 0.00 | 0.00 | 33 | 1000.7 |
| 20260504213505 | 63 | 198 | 1.0 | 13.0 | 0.00 | 0.00 | 0.00 | 34 | 1000.8 |
| 20260504213011 | 63 | 74 | 4.0 | 13.0 | 0.00 | 0.00 | 0.00 | 34 | 1000.9 |
| 20260504212507 | 63 | 257 | 2.0 | 13.0 | 0.00 | 0.00 | 0.00 | 34 | 1000.8 |
| 20260504212007 | 63 | 271 | 2.0 | 11.0 | 0.00 | 0.00 | 0.00 | 31 | 1001.0 |
| 20260504211516 | 64 | 259 | 2.0 | 11.0 | 0.00 | 0.00 | 0.00 | 32 | 1000.8 |
| 20260504211003 | 64 | 96 | 4.0 | 11.0 | 0.00 | 0.00 | 0.00 | 29 | 1000.8 |
| 20260504210507 | 65 | 147 | 3.0 | 11.0 | 0.00 | 0.00 | 0.00 | 30 | 1000.7 |
| 20260504210024 | 65 | 261 | 3.0 | 18.0 | 0.00 | 0.00 | 0.00 | 29 | 1000.5 |
| 20260504205509 | 66 | 17 | 3.0 | 18.0 | 0.00 | 0.00 | 0.00 | 29 | 1000.5 |
| 20260504205005 | 67 | 269 | 5.0 | 12.0 | 0.00 | 0.00 | 0.00 | 28 | 1000.5 |
| 20260504204515 | 67 | 80 | 3.0 | 11.0 | 0.00 | 0.00 | 0.00 | 29 | 1000.5 |
| 20260504204010 | 67 | 286 | 2.0 | 10.0 | 0.00 | 0.00 | 0.00 | 28 | 1000.4 |
| 20260504203503 | 67 | 109 | 3.0 | 16.0 | 0.00 | 0.00 | 0.00 | 27 | 1000.4 |
| 20260504203011 | 66 | 57 | 3.0 | 16.0 | 0.00 | 0.00 | 0.00 | 27 | 1000.4 |
| 20260504202507 | 67 | 360 | 3.0 | 12.0 | 0.00 | 0.00 | 0.00 | 30 | 1000.3 |
| 20260504202006 | 66 | 313 | 2.0 | 10.0 | 0.00 | 0.00 | 0.00 | 31 | 1000.4 |
| 20260504201517 | 65 | 243 | 2.0 | 7.0 | 0.00 | 0.00 | 0.00 | 30 | 1000.3 |
| 20260504201003 | 65 | 295 | 2.0 | 12.0 | 0.00 | 0.00 | 0.00 | 29 | 1000.2 |
| 20260504200509 | 65 | 221 | 2.0 | 12.0 | 0.00 | 0.00 | 0.00 | 29 | 1000.3 |
| 20260504200029 | 65 | 245 | 2.0 | 10.0 | 0.00 | 0.00 | 0.00 | 29 | 1000.3 |
| 20260504195504 | 66 | 348 | 2.0 | 10.0 | 0.00 | 0.00 | 0.00 | 29 | 1000.3 |
| 20260504195008 | 66 | 246 | 3.0 | 11.0 | 0.00 | 0.00 | 0.00 | 30 | 1000.3 |
| 20260504194523 | 66 | 334 | 2.0 | 11.0 | 0.00 | 0.00 | 0.00 | 30 | 1000.2 |
| 20260504194005 | 66 | 71 | 2.0 | 12.0 | 0.00 | 0.00 | 0.00 | 29 | 1000.2 |
| 20260504193507 | 66 | 257 | 4.0 | 13.0 | 0.00 | 0.00 | 0.00 | 28 | 1000.2 |
| 20260504193022 | 66 | 313 | 2.0 | 13.0 | 0.00 | 0.00 | 0.00 | 29 | 1000.2 |
| 20260504192511 | 66 | 77 | 2.0 | 10.0 | 0.00 | 0.00 | 0.00 | 29 | 1000.2 |
| 20260504192006 | 66 | 260 | 3.0 | 10.0 | 0.00 | 0.00 | 0.00 | 30 | 1000.1 |
| 20260504191520 | 66 | 30 | 1.0 | 8.0 | 0.00 | 0.00 | 0.00 | 31 | 1000.1 |
| 20260504191004 | 65 | 205 | 2.0 | 8.0 | 0.00 | 0.00 | 0.00 | 32 | 1000.0 |
| 20260504190504 | 65 | 300 | 2.0 | 8.0 | 0.00 | 0.00 | 0.00 | 34 | 1000.1 |
| 20260504190016 | 64 | 90 | 2.0 | 11.0 | 0.00 | 0.00 | 0.00 | 34 | 999.9 |
| 20260504185511 | 64 | 210 | 2.0 | 11.0 | 0.00 | 0.00 | 0.00 | 36 | 999.9 |
| 20260504185007 | 64 | 249 | 2.0 | 10.0 | 0.00 | 0.00 | 0.00 | 34 | 1000.0 |
| 20260504184514 | 65 | 329 | 1.0 | 10.0 | 0.00 | 0.00 | 0.00 | 35 | 999.9 |
| 20260504184007 | 65 | 266 | 3.0 | 11.0 | 0.00 | 0.00 | 0.00 | 34 | 999.8 |
| 20260504183508 | 65 | 261 | 2.0 | 11.0 | 0.00 | 0.00 | 0.00 | 34 | 999.7 |
| 20260504183036 | 66 | 5 | 2.0 | 19.0 | 0.00 | 0.00 | 0.00 | 34 | 999.7 |
| 20260504182509 | 66 | 113 | 2.0 | 19.0 | 0.00 | 0.00 | 0.00 | 31 | 999.6 |
| 20260504182010 | 66 | 248 | 3.0 | 19.0 | 0.00 | 0.00 | 0.00 | 30 | 999.4 |
| 20260504181528 | 67 | 217 | 2.0 | 7.0 | 0.00 | 0.00 | 0.00 | 27 | 999.3 |
| 20260504181003 | 67 | 173 | 2.0 | 8.0 | 0.00 | 0.00 | 0.00 | 28 | 999.3 |
| 20260504180511 | 68 | 234 | 1.0 | 8.0 | 0.00 | 0.00 | 0.00 | 30 | 999.2 |
| 20260504180012 | 68 | 302 | 1.0 | 11.0 | 0.00 | 0.00 | 0.00 | 33 | 999.1 |
| 20260504175504 | 68 | 231 | 2.0 | 11.0 | 0.00 | 0.00 | 0.00 | 32 | 999.0 |
| 20260504175004 | 69 | 39 | 3.0 | 10.0 | 0.00 | 0.00 | 0.00 | 34 | 998.9 |
| 20260504174519 | 69 | 284 | 1.0 | 10.0 | 0.00 | 0.00 | 0.00 | 34 | 998.9 |
| 20260504174007 | 69 | 344 | 3.0 | 10.0 | 0.00 | 0.00 | 0.00 | 35 | 999.0 |
| 20260504173503 | 69 | 175 | 2.0 | 8.0 | 0.00 | 0.00 | 0.00 | 32 | 998.9 |
| 20260504173018 | 69 | 248 | 2.0 | 10.0 | 0.00 | 0.00 | 0.00 | 36 | 999.0 |
| 20260504172510 | 69 | 347 | 3.0 | 10.0 | 0.00 | 0.00 | 0.00 | 36 | 999.0 |
| 20260504172012 | 68 | 238 | 2.0 | 9.0 | 0.00 | 0.00 | 0.00 | 37 | 999.0 |
| 20260504171515 | 67 | 225 | 3.0 | 9.0 | 0.00 | 0.00 | 0.00 | 33 | 999.1 |
| 20260504171015 | 67 | 249 | 0.0 | 8.0 | 0.00 | 0.00 | 0.00 | 33 | 999.1 |
| 20260504170513 | 68 | 275 | 2.0 | 10.0 | 0.00 | 0.00 | 0.00 | 32 | 999.1 |
| 20260504151006 | 65 | 299 | 2.0 | 8.0 | 0.00 | 0.00 | 0.00 | 45 | 998.5 |
| 20260504150511 | 65 | 222 | 2.0 | 7.0 | 0.00 | 0.00 | 0.00 | 46 | 998.5 |
| 20260504141011 | 62 | 39 | 1.0 | 7.0 | 0.00 | 0.00 | 0.00 | 47 | 998.4 |
| 20260504140508 | 62 | 80 | 2.0 | 10.0 | 0.00 | 0.00 | 0.00 | 47 | 998.3 |
| 20260504130504 | 57 | 224 | 4.0 | 15.0 | 0.00 | 0.00 | 0.00 | 51 | 997.7 |
| 20260504110505 | 52 | 146 | 3.0 | 9.0 | 0.00 | 0.00 | 0.00 | 54 | 998.3 |
| 20260504100502 | 50 | 257 | 2.0 | 7.0 | 0.00 | 0.00 | 0.00 | 55 | 999.0 |
| 20260504082003 | 47 | 159 | 0.0 | 1.0 | 0.00 | 0.00 | 0.00 | 60 | 1000.3 |
| 20260504081511 | 47 | 209 | 0.0 | 1.0 | 0.00 | 0.00 | 0.00 | 60 | 1000.4 |
| 20260504081003 | 47 | 224 | 0.0 | 2.0 | 0.00 | 0.00 | 0.00 | 60 | 1000.6 |
| 20260504080503 | 47 | 226 | 0.0 | 3.0 | 0.00 | 0.00 | 0.00 | 61 | 1000.8 |
| 20260504050504 | 48 | 311 | 0.0 | 0.0 | 0.00 | 0.00 | 0.00 | 56 | 1003.6 |
| 20260504050005 | 48 | 311 | 0.0 | 0.0 | 0.00 | 0.00 | 0.00 | 56 | 1003.7 |
| 20260504045503 | 48 | 311 | 0.0 | 0.0 | 0.00 | 0.00 | 0.00 | 55 | 1003.7 |
| 20260504045003 | 49 | 311 | 0.0 | 0.0 | 0.00 | 0.00 | 0.00 | 55 | 1003.6 |
| 20260504044510 | 49 | 311 | 0.0 | 0.0 | 0.00 | 0.00 | 0.00 | 55 | 1003.7 |
| 20260504044004 | 49 | 311 | 0.0 | 0.0 | 0.00 | 0.00 | 0.00 | 54 | 1003.8 |
| 20260504043503 | 49 | 311 | 0.0 | 0.0 | 0.00 | 0.00 | 0.00 | 54 | 1003.8 |
| 20260504043009 | 49 | 311 | 0.0 | 0.0 | 0.00 | 0.00 | 0.00 | 54 | 1003.9 |
| 20260504042503 | 50 | 311 | 0.0 | 0.0 | 0.00 | 0.00 | 0.00 | 53 | 1004.0 |
| 20260504042003 | 50 | 311 | 0.0 | 0.0 | 0.00 | 0.00 | 0.00 | 53 | 1004.0 |
| 20260504041507 | 50 | 311 | 0.0 | 0.0 | 0.00 | 0.00 | 0.00 | 53 | 1004.2 |
| 20260504041005 | 50 | 311 | 0.0 | 0.0 | 0.00 | 0.00 | 0.00 | 52 | 1004.2 |
| 20260504040505 | 51 | 311 | 0.0 | 0.0 | 0.00 | 0.00 | 0.00 | 52 | 1004.3 |
| 20260504040003 | 51 | 311 | 0.0 | 0.0 | 0.00 | 0.00 | 0.00 | 51 | 1004.4 |
| 20260504035503 | 51 | 311 | 0.0 | 0.0 | 0.00 | 0.00 | 0.00 | 51 | 1004.5 |
| 20260504035006 | 52 | 311 | 0.0 | 0.0 | 0.00 | 0.00 | 0.00 | 50 | 1004.6 |
| 20260504034502 | 52 | 311 | 0.0 | 0.0 | 0.00 | 0.00 | 0.00 | 50 | 1004.6 |
| 20260504034002 | 52 | 311 | 0.0 | 0.0 | 0.00 | 0.00 | 0.00 | 49 | 1004.7 |
| 20260504033503 | 53 | 311 | 0.0 | 0.0 | 0.00 | 0.00 | 0.00 | 49 | 1004.6 |
| 20260504033006 | 53 | 311 | 0.0 | 0.0 | 0.00 | 0.00 | 0.00 | 48 | 1004.6 |
| 20260504032503 | 53 | 311 | 0.0 | 0.0 | 0.00 | 0.00 | 0.00 | 48 | 1004.7 |
| 20260504032005 | 54 | 311 | 0.0 | 0.0 | 0.00 | 0.00 | 0.00 | 47 | 1004.8 |
| 20260504031509 | 54 | 311 | 0.0 | 1.0 | 0.00 | 0.00 | 0.00 | 46 | 1005.0 |
| 20260504031003 | 54 | 311 | 0.0 | 1.0 | 0.00 | 0.00 | 0.00 | 46 | 1005.0 |
| 20260504030503 | 55 | 311 | 0.0 | 1.0 | 0.00 | 0.00 | 0.00 | 46 | 1005.1 |
| 20260504030030 | 55 | 311 | 0.0 | 0.0 | 0.00 | 0.00 | 0.00 | 46 | 1005.2 |
| 20260504025512 | 55 | 311 | 0.0 | 0.0 | 0.00 | 0.00 | 0.00 | 45 | 1005.2 |
| 20260504025002 | 56 | 311 | 0.0 | 0.0 | 0.00 | 0.00 | 0.00 | 45 | 1005.3 |
| 20260504024509 | 56 | 311 | 0.0 | 0.0 | 0.00 | 0.00 | 0.00 | 45 | 1005.1 |
| 20260504024003 | 56 | 311 | 0.0 | 0.0 | 0.00 | 0.00 | 0.00 | 44 | 1005.2 |
| 20260504023506 | 57 | 311 | 0.0 | 0.0 | 0.00 | 0.00 | 0.00 | 43 | 1005.2 |
| 20260504023003 | 57 | 311 | 0.0 | 0.0 | 0.00 | 0.00 | 0.00 | 42 | 1005.1 |
| 20260504022502 | 57 | 311 | 0.0 | 0.0 | 0.00 | 0.00 | 0.00 | 42 | 1005.1 |
| 20260504022003 | 58 | 311 | 0.0 | 0.0 | 0.00 | 0.00 | 0.00 | 41 | 1005.1 |
| 20260504021504 | 58 | 311 | 0.0 | 0.0 | 0.00 | 0.00 | 0.00 | 40 | 1005.1 |
| 20260504021004 | 59 | 311 | 0.0 | 0.0 | 0.00 | 0.00 | 0.00 | 40 | 1005.1 |
| 20260504020505 | 59 | 311 | 0.0 | 0.0 | 0.00 | 0.00 | 0.00 | 39 | 1005.1 |
| 20260504020008 | 59 | 311 | 0.0 | 0.0 | 0.00 | 0.00 | 0.00 | 39 | 1005.0 |
| 20260504015503 | 60 | 311 | 0.0 | 0.0 | 0.00 | 0.00 | 0.00 | 39 | 1005.1 |
| 20260504015004 | 60 | 311 | 0.0 | 0.0 | 0.00 | 0.00 | 0.00 | 38 | 1005.0 |
| 20260504014531 | 61 | 311 | 0.0 | 0.0 | 0.00 | 0.00 | 0.00 | 37 | 1005.0 |
| 20260504014008 | 61 | 311 | 0.0 | 0.0 | 0.00 | 0.00 | 0.00 | 36 | 1004.9 |
| 20260504013503 | 62 | 311 | 0.0 | 0.0 | 0.00 | 0.00 | 0.00 | 36 | 1004.9 |
| 20260504013013 | 63 | 311 | 0.0 | 0.0 | 0.00 | 0.00 | 0.00 | 35 | 1004.9 |